FLOCK 4S-47 (47685 NORAD) Tracking and Keplerian Element Data

This shows tracking and keplerian element data for the satellite.

Feedback or suggestion? Click here.




ElementValue
Catalog47685
NameFLOCK 4S-47
Epoch Orbit1264
Epoch Day99.86190777
Epoch Year2021
RAAN162.2003
Inclination97.4975
Eccentricity0.0006843
Argument of Perigee5.5615
Mean Anonmoly354.569
Mean Motion15.11654917
Decay Rate2.477E-05
L11 47685U 21006EL 21099.86190777 .00002477 00000-0 14938-3 0 9993
L22 47685 97.4975 162.2003 0006843 5.5615 354.5690 15.11654917 12645

Live tracking and technical data element details for FLOCK 4S-47 (NORAD 47685). FLOCK 4S-47 can be tracked NOW for your location showing map with azimuth and elevation plus other details from your city location.

Track the satellite on the map from your city or location and see movement details for azimuth, elevation, latitude, longitude, range, height, and movement on the map or in text.







IsCatalogInMostPopularTable: catalog: 47685, numindb: 17
Update: records affected: 1



GetName: 47685 FLOCK 4S-47

Hit Count: updated at: Sat, 10 Apr 2021 19:02:52 GMT